NOAA 16 DEB, 41050

Orbit data source: Space-Track

NOAA 16 DEB, 41050 is space debris in SSO originally from a launch on Thu, 21 Sep 2000 UTC launched from the Air Force Western Test Range (AFWTR). Debris objects in space refer to the collection of defunct objects orbiting the Earth. Examples of debris include non-operational satellites, rocket bodies, and fragments generated from explosions, collisions, or faulty payload assembly.

Loading next visibility...
Identifier
41050, 2000-055H
Orbit
SSO
Country
Flag of USUS
Related business
Manufacturer
Unknown
Mission
Spacecraft
Bus & Motor
Unknown
Mass
Unknown
Launch date (UTC)
2000-09-21 (26 years ago)
Launch vehicle
Unknown
Launch site
Air Force Western Test Range (AFWTR)
Object type
Payload
Rocket body
Debris
Shape & HBR
Unknown shape, 0.1 m
Radar Cross Section
Medium (>0.1 m² and <1 m²)

Expand to show TLE details & history
Last TLE update: 2 days ago

TLE from 2 days ago
0 NOAA 16 DEB
1 41050U 00055H   26171.18961763  .00036515  00000-0  33406-2 0  9996
2 41050  98.9214  34.4951 0009849  46.6453 313.5583 14.94835748551652
Epoch: 2026-06-20T04:33Z
TLE epoch observation values (Epoch: 2026-06-20T04:33:02.963Z)
Latitude
0.00001°
Longitude
57.82495°
Altitude
581.17 km
Speed
7.572 km/s
True Right ascension
02h 17m 58s
True Declination
0° 00' 00"
Sunlit
Object was in daylight at epoch
Visualization orbit readout
Latitude
Unknown
Longitude
Unknown
Altitude
Unknown
Speed
Unknown
Apparent Right ascension
Unknown
Apparent Declination
Unknown
Sunlit
N/A
Visualization observer readout
Local Sidereal Time
21:58:16
Azimuth
Unknown
Elevation
Unknown
Doppler factor
Unknown
Orbital elements
Apogee altitude
586.806 km
Perigee altitude
573.1 km
Semi-major axis
6,958.09 km
Eccentricity
0.00098
Inclination
98.9214°
RAAN
34.4951°
Arg. of periapsis
46.6453°
True anomaly
313.47644°
Mean anomaly
313.5583°
Eccentric anomaly
313.51738°
Mean motion
3.73945 °/min
Orbital period
96.27 mins
BSTAR
0.0033406
Loading maneuver chart data...
Computing Atmospheric mass density...
Loading historical data...
Loading historical data...
Loading historical data...
Loading historical data...
Loading historical data...
Loading historical data...
Loading historical data...

Documentation

Showing up to 5 results
|